GFSNW_prec_precacc12_027.txt.gz
Total_Precipitation_Accumulation
0.20 0.14 0.13 0.14 0.10 0.12 0.11 0.03 0.01 0.01 0.00 0.00 0.01 0.00 0.00 0.00 0.00 0.00 0.00 0.00 0.00 0.00 0.00 0.00 0.00 0.00 0.00 0.00 0.00 0.00 0.00 0.00 0.00 0.00 0.00 0.00 0.00 0.01 0.01 0.00 0.00 0.00 0.00 0.00
0.26 0.20 0.21 0.21 0.14 0.10 0.07 0.04 0.11 0.11 0.00 0.02 0.01 0.00 0.00 0.00 0.00 0.00 0.00 0.00 0.00 0.00 0.00 0.00 0.00 0.00 0.00 0.00 0.00 0.00 0.00 0.00 0.00 0.00 0.00 0.00 0.00 0.00 0.00 0.00 0.00 0.00 0.00 0.00
0.29 0.26 0.25 0.28 0.20 0.10 0.07 0.02 0.13 0.23 0.07 0.00 0.00 0.00 0.00 0.00 0.00 0.00 0.00 0.00 0.00 0.00 0.00 0.00 0.00 0.00 0.00 0.00 0.00 0.00 0.00 0.00 0.00 0.00 0.00 0.00 0.00 0.00 0.00 0.00 0.00 0.00 0.00 0.00
0.32 0.31 0.25 0.28 0.25 0.15 0.20 0.04 0.01 0.04 0.03 0.00 0.00 0.00 0.00 0.00 0.00 0.00 0.00 0.00 0.00 0.00 0.00 0.00 0.00 0.00 0.00 0.00 0.00 0.00 0.00 0.00 0.00 0.00 0.00 0.00 0.00 0.00 0.00 0.00 0.00 0.00 0.00 0.00
0.36 0.31 0.25 0.22 0.32 0.26 0.40 0.05 0.00 0.00 0.01 0.00 0.00 0.00 0.00 0.00 0.00 0.00 0.00 0.00 0.00 0.00 0.00 0.00 0.00 0.00 0.00 0.00 0.00 0.00 0.00 0.00 0.00 0.00 0.00 0.00 0.00 0.00 0.00 0.00 0.00 0.00 0.00 0.00
0.35 0.26 0.20 0.19 0.30 0.54 0.44 0.04 0.00 0.00 0.02 0.00 0.00 0.00 0.00 0.00 0.00 0.00 0.00 0.00 0.00 0.00 0.00 0.00 0.00 0.00 0.00 0.00 0.00 0.00 0.00 0.00 0.00 0.00 0.00 0.00 0.00 0.00 0.00 0.00 0.00 0.00 0.00 0.00
0.28 0.25 0.14 0.19 0.33 0.45 0.16 0.01 0.03 0.07 0.07 0.01 0.00 0.00 0.00 0.00 0.00 0.00 0.00 0.00 0.00 0.00 0.00 0.00 0.00 0.00 0.00 0.01 0.02 0.00 0.01 0.00 0.00 0.00 0.00 0.00 0.00 0.00 0.00 0.00 0.00 0.00 0.00 0.00
0.20 0.21 0.15 0.13 0.27 0.24 0.10 0.05 0.10 0.11 0.09 0.01 0.00 0.00 0.00 0.00 0.00 0.00 0.00 0.00 0.00 0.00 0.00 0.02 0.02 0.00 0.00 0.00 0.00 0.01 0.01 0.00 0.00 0.00 0.00 0.00 0.00 0.00 0.00 0.00 0.00 0.00 0.00 0.00
0.14 0.14 0.17 0.10 0.14 0.14 0.16 0.14 0.15 0.20 0.10 0.02 0.00 0.00 0.00 0.00 0.00 0.01 0.03 0.02 0.01 0.00 0.00 0.00 0.00 0.00 0.00 0.00 0.00 0.00 0.00 0.00 0.00 0.00 0.00 0.00 0.00 0.00 0.00 0.00 0.00 0.00 0.00 0.00
0.11 0.10 0.13 0.08 0.05 0.05 0.18 0.23 0.16 0.46 0.12 0.00 0.00 0.00 0.00 0.01 0.00 0.01 0.02 0.03 0.02 0.00 0.02 0.02 0.00 0.00 0.00 0.00 0.00 0.00 0.00 0.00 0.00 0.00 0.00 0.00 0.00 0.00 0.00 0.00 0.00 0.00 0.00 0.00
0.08 0.07 0.06 0.04 0.02 0.02 0.22 0.30 0.11 0.48 0.16 0.01 0.00 0.00 0.01 0.00 0.00 0.01 0.01 0.02 0.01 0.00 0.01 0.01 0.00 0.00 0.00 0.00 0.00 0.00 0.00 0.00 0.00 0.00 0.00 0.00 0.00 0.00 0.00 0.00 0.00 0.00 0.00 0.00
0.06 0.05 0.03 0.01 0.01 0.03 0.24 0.42 0.12 0.31 0.40 0.06 0.01 0.00 0.00 0.00 0.00 0.00 0.00 0.00 0.00 0.00 0.00 0.01 0.02 0.00 0.00 0.00 0.00 0.00 0.00 0.00 0.00 0.00 0.00 0.00 0.00 0.00 0.00 0.00 0.00 0.00 0.00 0.00
0.06 0.04 0.01 0.01 0.02 0.04 0.22 0.40 0.34 0.49 0.81 0.19 0.05 0.01 0.00 0.00 0.00 0.00 0.00 0.00 0.00 0.00 0.00 0.00 0.00 0.01 0.00 0.00 0.00 0.00 0.00 0.00 0.00 0.00 0.00 0.00 0.00 0.00 0.00 0.00 0.00 0.00 0.00 0.00
0.07 0.02 0.01 0.01 0.01 0.04 0.26 0.35 0.70 0.92 0.68 0.47 0.09 0.01 0.00 0.00 0.00 0.00 0.00 0.00 0.00 0.00 0.00 0.00 0.01 0.01 0.00 0.00 0.00 0.00 0.00 0.00 0.00 0.00 0.00 0.00 0.00 0.00 0.00 0.00 0.00 0.00 0.00 0.00
0.06 0.01 0.01 0.01 0.02 0.06 0.32 0.34 0.81 1.01 0.70 0.41 0.08 0.01 0.00 0.00 0.00 0.00 0.00 0.00 0.00 0.00 0.00 0.01 0.01 0.00 0.00 0.00 0.00 0.00 0.00 0.00 0.00 0.00 0.00 0.00 0.00 0.00 0.00 0.00 0.00 0.00 0.00 0.00
0.08 0.04 0.03 0.02 0.04 0.13 0.54 0.59 0.52 0.54 0.42 0.27 0.09 0.02 0.00 0.00 0.00 0.00 0.00 0.01 0.00 0.00 0.00 0.00 0.00 0.00 0.00 0.00 0.00 0.00 0.00 0.00 0.00 0.00 0.00 0.00 0.00 0.00 0.00 0.00 0.00 0.00 0.00 0.00
0.09 0.07 0.06 0.10 0.14 0.27 0.75 0.51 0.28 0.23 0.22 0.22 0.07 0.05 0.03 0.01 0.00 0.00 0.00 0.00 0.00 0.01 0.00 0.00 0.00 0.00 0.00 0.00 0.00 0.00 0.00 0.00 0.00 0.00 0.00 0.00 0.00 0.00 0.00 0.00 0.00 0.00 0.00 0.00
0.08 0.07 0.12 0.18 0.23 0.39 0.66 0.12 0.06 0.07 0.05 0.11 0.10 0.02 0.03 0.02 0.03 0.02 0.01 0.01 0.01 0.02 0.00 0.00 0.00 0.00 0.00 0.00 0.00 0.00 0.00 0.00 0.00 0.00 0.00 0.00 0.00 0.00 0.00 0.00 0.00 0.00 0.00 0.00
0.06 0.05 0.09 0.20 0.37 0.50 0.32 0.03 0.01 0.04 0.07 0.11 0.06 0.03 0.03 0.01 0.01 0.01 0.01 0.01 0.01 0.00 0.00 0.00 0.00 0.00 0.00 0.00 0.00 0.00 0.00 0.00 0.00 0.00 0.00 0.00 0.00 0.00 0.00 0.00 0.00 0.00 0.01 0.01
0.06 0.07 0.17 0.24 0.22 0.15 0.04 0.02 0.03 0.05 0.11 0.04 0.02 0.03 0.01 0.02 0.03 0.02 0.02 0.01 0.01 0.00 0.01 0.00 0.00 0.00 0.00 0.00 0.00 0.00 0.00 0.00 0.00 0.00 0.00 0.00 0.00 0.00 0.00 0.00 0.00 0.00 0.00 0.00
0.08 0.08 0.09 0.08 0.06 0.10 0.10 0.06 0.05 0.03 0.09 0.03 0.00 0.01 0.01 0.01 0.04 0.06 0.04 0.03 0.02 0.01 0.01 0.01 0.00 0.00 0.00 0.00 0.00 0.00 0.00 0.00 0.00 0.00 0.00 0.00 0.00 0.00 0.00 0.00 0.00 0.00 0.00 0.00
0.04 0.02 0.03 0.07 0.08 0.16 0.11 0.06 0.04 0.01 0.02 0.01 0.00 0.00 0.00 0.00 0.01 0.02 0.02 0.02 0.01 0.01 0.01 0.01 0.01 0.00 0.00 0.00 0.00 0.00 0.00 0.00 0.00 0.00 0.00 0.00 0.00 0.00 0.00 0.00 0.00 0.00 0.00 0.00
0.00 0.02 0.06 0.13 0.05 0.10 0.07 0.02 0.01 0.01 0.00 0.01 0.01 0.01 0.00 0.00 0.00 0.00 0.01 0.02 0.01 0.00 0.00 0.00 0.00 0.00 0.01 0.01 0.00 0.00 0.00 0.00 0.00 0.00 0.00 0.00 0.00 0.00 0.00 0.00 0.00 0.00 0.00 0.00
0.00 0.04 0.04 0.12 0.08 0.02 0.01 0.01 0.00 0.00 0.01 0.00 0.00 0.00 0.00 0.00 0.00 0.00 0.00 0.01 0.01 0.02 0.01 0.01 0.01 0.01 0.02 0.01 0.00 0.00 0.00 0.00 0.00 0.00 0.00 0.00 0.00 0.00 0.00 0.00 0.00 0.00 0.00 0.00
0.04 0.06 0.09 0.07 0.06 0.02 0.03 0.02 0.01 0.01 0.01 0.00 0.00 0.00 0.00 0.00 0.00 0.01 0.01 0.02 0.02 0.02 0.01 0.00 0.01 0.02 0.02 0.01 0.00 0.00 0.00 0.00 0.00 0.00 0.00 0.00 0.00 0.00 0.00 0.00 0.00 0.00 0.00 0.00
0.17 0.15 0.14 0.11 0.08 0.08 0.04 0.03 0.03 0.02 0.01 0.00 0.01 0.01 0.03 0.03 0.01 0.03 0.02 0.02 0.02 0.01 0.00 0.00 0.01 0.04 0.05 0.02 0.00 0.00 0.00 0.00 0.00 0.00 0.00 0.00 0.00 0.00 0.00 0.00 0.00 0.00 0.00 0.00
0.17 0.31 0.31 0.24 0.19 0.20 0.19 0.15 0.12 0.09 0.07 0.09 0.10 0.11 0.08 0.07 0.07 0.06 0.04 0.05 0.04 0.03 0.04 0.04 0.04 0.07 0.06 0.02 0.02 0.00 0.00 0.00 0.00 0.00 0.00 0.00 0.00 0.00 0.00 0.00 0.00 0.00 0.00 0.00

GFSNW_prec_precacc12_030.txt.gz
Total_Precipitation_Accumulation
0.13 0.13 0.15 0.17 0.12 0.15 0.15 0.09 0.03 0.01 0.00 0.01 0.01 0.00 0.00 0.00 0.00 0.00 0.00 0.00 0.00 0.00 0.00 0.00 0.00 0.00 0.00 0.00 0.00 0.00 0.00 0.00 0.00 0.00 0.00 0.00 0.00 0.01 0.03 0.00 0.00 0.00 0.00 0.00
0.13 0.19 0.25 0.25 0.18 0.14 0.10 0.10 0.12 0.12 0.00 0.02 0.01 0.00 0.00 0.00 0.00 0.00 0.00 0.00 0.00 0.00 0.00 0.00 0.00 0.00 0.00 0.00 0.00 0.00 0.00 0.00 0.00 0.00 0.00 0.00 0.00 0.00 0.00 0.00 0.00 0.00 0.00 0.00
0.13 0.22 0.31 0.32 0.25 0.14 0.12 0.08 0.16 0.29 0.09 0.00 0.00 0.00 0.00 0.00 0.00 0.00 0.00 0.00 0.00 0.00 0.00 0.00 0.00 0.00 0.00 0.00 0.00 0.00 0.00 0.00 0.00 0.00 0.00 0.00 0.00 0.00 0.00 0.00 0.00 0.00 0.00 0.00
0.20 0.30 0.31 0.36 0.31 0.19 0.31 0.13 0.02 0.05 0.04 0.00 0.00 0.00 0.00 0.00 0.00 0.00 0.00 0.00 0.00 0.00 0.00 0.00 0.00 0.00 0.00 0.00 0.00 0.00 0.00 0.00 0.00 0.00 0.00 0.00 0.00 0.00 0.00 0.00 0.00 0.00 0.00 0.00
0.26 0.33 0.32 0.29 0.43 0.33 0.56 0.17 0.01 0.01 0.01 0.00 0.00 0.00 0.00 0.00 0.00 0.00 0.00 0.00 0.00 0.00 0.00 0.00 0.00 0.00 0.00 0.00 0.00 0.00 0.00 0.00 0.00 0.00 0.00 0.00 0.00 0.00 0.00 0.00 0.00 0.00 0.00 0.00
0.33 0.30 0.27 0.24 0.45 0.71 0.60 0.16 0.01 0.01 0.03 0.00 0.00 0.00 0.00 0.00 0.00 0.00 0.00 0.00 0.00 0.00 0.00 0.00 0.00 0.00 0.00 0.00 0.00 0.00 0.00 0.00 0.00 0.00 0.00 0.00 0.00 0.00 0.00 0.00 0.00 0.00 0.00 0.00
0.28 0.26 0.18 0.21 0.46 0.62 0.25 0.08 0.05 0.12 0.08 0.01 0.00 0.00 0.00 0.00 0.00 0.00 0.00 0.00 0.00 0.00 0.00 0.00 0.00 0.00 0.00 0.02 0.03 0.01 0.01 0.00 0.00 0.00 0.00 0.00 0.00 0.00 0.00 0.00 0.00 0.00 0.00 0.00
0.20 0.22 0.17 0.16 0.32 0.32 0.18 0.11 0.16 0.19 0.11 0.01 0.00 0.00 0.00 0.00 0.00 0.00 0.00 0.00 0.00 0.00 0.01 0.03 0.03 0.01 0.01 0.00 0.01 0.02 0.02 0.01 0.00 0.00 0.00 0.00 0.00 0.00 0.00 0.00 0.00 0.00 0.00 0.00
0.14 0.15 0.20 0.12 0.15 0.18 0.24 0.22 0.34 0.33 0.20 0.02 0.00 0.00 0.00 0.00 0.01 0.01 0.03 0.02 0.02 0.00 0.01 0.00 0.00 0.00 0.00 0.00 0.00 0.00 0.00 0.00 0.00 0.00 0.00 0.00 0.00 0.00 0.00 0.00 0.00 0.00 0.00 0.00
0.12 0.11 0.18 0.10 0.07 0.06 0.22 0.35 0.40 0.58 0.27 0.04 0.00 0.00 0.00 0.01 0.01 0.03 0.02 0.04 0.03 0.01 0.03 0.03 0.00 0.00 0.00 0.00 0.00 0.00 0.00 0.00 0.00 0.00 0.00 0.00 0.00 0.00 0.00 0.00 0.00 0.00 0.00 0.00
0.10 0.09 0.10 0.07 0.04 0.04 0.23 0.44 0.29 0.58 0.32 0.10 0.03 0.00 0.01 0.00 0.00 0.01 0.01 0.05 0.06 0.05 0.04 0.02 0.00 0.00 0.00 0.00 0.00 0.00 0.00 0.00 0.00 0.00 0.00 0.00 0.00 0.00 0.00 0.00 0.00 0.00 0.00 0.00
0.09 0.08 0.05 0.04 0.04 0.04 0.24 0.49 0.21 0.37 0.54 0.21 0.07 0.02 0.00 0.00 0.00 0.00 0.00 0.01 0.01 0.01 0.02 0.01 0.01 0.00 0.00 0.00 0.00 0.00 0.00 0.00 0.00 0.00 0.00 0.00 0.00 0.00 0.00 0.00 0.00 0.00 0.00 0.00
0.09 0.05 0.04 0.03 0.03 0.04 0.22 0.44 0.40 0.55 0.91 0.26 0.10 0.04 0.00 0.00 0.00 0.02 0.01 0.00 0.00 0.00 0.01 0.00 0.00 0.00 0.00 0.00 0.00 0.00 0.00 0.00 0.00 0.00 0.00 0.00 0.00 0.00 0.00 0.00 0.00 0.00 0.00 0.00
0.08 0.02 0.02 0.01 0.01 0.04 0.27 0.39 0.77 1.04 0.90 0.57 0.15 0.04 0.03 0.01 0.00 0.01 0.01 0.01 0.00 0.00 0.00 0.00 0.01 0.01 0.00 0.00 0.00 0.00 0.00 0.00 0.00 0.00 0.00 0.00 0.00 0.00 0.00 0.00 0.00 0.00 0.00 0.00
0.06 0.02 0.01 0.01 0.02 0.07 0.34 0.41 0.86 1.17 1.11 0.78 0.39 0.06 0.03 0.06 0.02 0.00 0.00 0.00 0.00 0.00 0.00 0.01 0.01 0.00 0.00 0.00 0.00 0.00 0.00 0.00 0.00 0.00 0.00 0.00 0.00 0.00 0.00 0.00 0.00 0.00 0.00 0.00
0.04 0.02 0.02 0.02 0.05 0.15 0.60 0.69 0.59 0.66 0.86 0.90 0.73 0.10 0.04 0.06 0.06 0.10 0.02 0.03 0.01 0.00 0.01 0.00 0.00 0.00 0.00 0.00 0.00 0.00 0.00 0.00 0.00 0.00 0.00 0.00 0.00 0.00 0.00 0.00 0.00 0.00 0.00 0.00
0.03 0.01 0.02 0.06 0.14 0.31 0.81 0.76 0.69 0.39 0.62 0.76 0.62 0.38 0.10 0.07 0.04 0.20 0.10 0.08 0.04 0.06 0.02 0.00 0.00 0.00 0.00 0.00 0.00 0.00 0.00 0.00 0.00 0.00 0.00 0.00 0.00 0.00 0.00 0.00 0.00 0.00 0.00 0.00
0.04 0.02 0.05 0.14 0.27 0.50 0.88 0.47 0.44 0.40 0.33 0.37 0.39 0.30 0.07 0.05 0.05 0.05 0.05 0.06 0.08 0.08 0.05 0.02 0.00 0.00 0.00 0.00 0.00 0.00 0.00 0.00 0.00 0.00 0.00 0.00 0.00 0.00 0.00 0.00 0.00 0.00 0.00 0.00
0.08 0.09 0.21 0.40 0.66 0.92 0.84 0.31 0.33 0.39 0.30 0.27 0.12 0.08 0.04 0.02 0.02 0.03 0.04 0.03 0.04 0.01 0.02 0.01 0.00 0.00 0.00 0.00 0.00 0.00 0.00 0.00 0.00 0.00 0.00 0.00 0.00 0.00 0.00 0.00 0.00 0.00 0.00 0.00
0.16 0.31 0.54 0.71 0.73 0.85 0.57 0.44 0.33 0.20 0.18 0.06 0.03 0.04 0.01 0.02 0.03 0.02 0.03 0.02 0.01 0.00 0.01 0.01 0.01 0.00 0.00 0.00 0.00 0.00 0.00 0.00 0.00 0.00 0.00 0.00 0.00 0.00 0.00 0.00 0.00 0.00 0.00 0.00
0.36 0.51 0.61 0.55 0.66 0.53 0.39 0.17 0.08 0.04 0.09 0.03 0.00 0.03 0.02 0.01 0.05 0.06 0.05 0.03 0.02 0.01 0.01 0.01 0.00 0.00 0.00 0.00 0.01 0.00 0.00 0.00 0.00 0.00 0.00 0.00 0.00 0.00 0.00 0.00 0.00 0.00 0.00 0.00
0.19 0.27 0.28 0.44 0.30 0.22 0.12 0.06 0.04 0.01 0.02 0.01 0.00 0.02 0.03 0.00 0.01 0.03 0.03 0.04 0.01 0.01 0.01 0.01 0.00 0.01 0.01 0.01 0.01 0.01 0.00 0.00 0.00 0.00 0.00 0.00 0.00 0.00 0.00 0.00 0.00 0.00 0.00 0.00
0.07 0.07 0.13 0.16 0.06 0.10 0.07 0.02 0.01 0.01 0.00 0.01 0.01 0.05 0.03 0.01 0.01 0.02 0.02 0.03 0.01 0.00 0.00 0.00 0.00 0.00 0.00 0.01 0.01 0.00 0.00 0.00 0.00 0.00 0.00 0.00 0.00 0.00 0.00 0.00 0.00 0.00 0.00 0.00
0.01 0.04 0.07 0.13 0.09 0.02 0.01 0.01 0.01 0.00 0.01 0.00 0.00 0.06 0.08 0.05 0.03 0.01 0.01 0.01 0.01 0.01 0.01 0.00 0.00 0.00 0.00 0.00 0.00 0.00 0.00 0.00 0.00 0.00 0.00 0.00 0.00 0.00 0.00 0.00 0.00 0.00 0.00 0.00
0.05 0.06 0.09 0.07 0.06 0.03 0.04 0.03 0.02 0.02 0.01 0.00 0.00 0.00 0.02 0.02 0.03 0.00 0.00 0.00 0.01 0.01 0.01 0.00 0.00 0.01 0.01 0.00 0.00 0.00 0.00 0.00 0.00 0.00 0.00 0.00 0.00 0.00 0.00 0.00 0.00 0.00 0.00 0.00
0.14 0.12 0.13 0.11 0.09 0.10 0.06 0.04 0.04 0.02 0.01 0.00 0.00 0.00 0.00 0.00 0.00 0.01 0.01 0.01 0.02 0.02 0.00 0.00 0.00 0.03 0.03 0.00 0.00 0.00 0.00 0.00 0.00 0.00 0.00 0.00 0.00 0.00 0.00 0.00 0.00 0.00 0.00 0.00
0.16 0.30 0.30 0.24 0.19 0.22 0.20 0.16 0.13 0.09 0.06 0.06 0.06 0.09 0.09 0.08 0.07 0.07 0.06 0.08 0.08 0.06 0.05 0.05 0.05 0.07 0.06 0.04 0.03 0.01 0.02 0.01 0.00 0.00 0.00 0.00 0.00 0.00 0.00 0.00 0.00 0.00 0.00 0.00

GFSNW_prec_precacc12_036.txt.gz
Total_Precipitation_Accumulation
0.14 0.12 0.14 0.15 0.11 0.08 0.19 0.15 0.06 0.01 0.02 0.09 0.03 0.00 0.00 0.00 0.00 0.00 0.00 0.00 0.00 0.00 0.00 0.00 0.00 0.00 0.00 0.00 0.00 0.00 0.00 0.00 0.00 0.00 0.00 0.00 0.00 0.01 0.03 0.00 0.00 0.00 0.00 0.00
0.15 0.18 0.15 0.19 0.15 0.08 0.15 0.17 0.11 0.12 0.02 0.03 0.00 0.00 0.00 0.00 0.00 0.00 0.00 0.00 0.00 0.00 0.00 0.00 0.00 0.00 0.00 0.00 0.00 0.00 0.00 0.00 0.00 0.00 0.00 0.00 0.00 0.00 0.00 0.00 0.00 0.00 0.00 0.00
0.13 0.20 0.17 0.16 0.18 0.08 0.20 0.17 0.17 0.36 0.18 0.00 0.00 0.00 0.00 0.00 0.00 0.00 0.00 0.00 0.00 0.00 0.00 0.00 0.00 0.00 0.00 0.00 0.00 0.00 0.00 0.00 0.00 0.00 0.00 0.00 0.00 0.00 0.00 0.00 0.00 0.00 0.00 0.00
0.15 0.17 0.20 0.16 0.17 0.10 0.43 0.27 0.06 0.08 0.09 0.00 0.00 0.00 0.00 0.00 0.00 0.00 0.00 0.00 0.00 0.00 0.00 0.00 0.00 0.00 0.00 0.00 0.00 0.00 0.00 0.00 0.00 0.00 0.00 0.00 0.00 0.00 0.00 0.00 0.00 0.00 0.00 0.00
0.13 0.16 0.21 0.15 0.19 0.21 0.77 0.41 0.05 0.04 0.01 0.00 0.00 0.00 0.00 0.00 0.00 0.00 0.00 0.00 0.00 0.00 0.00 0.00 0.00 0.00 0.00 0.00 0.00 0.00 0.00 0.00 0.00 0.00 0.00 0.00 0.00 0.00 0.00 0.00 0.00 0.00 0.00 0.00
0.10 0.12 0.17 0.13 0.22 0.53 0.91 0.33 0.03 0.06 0.02 0.01 0.00 0.00 0.00 0.00 0.00 0.00 0.00 0.00 0.00 0.00 0.00 0.00 0.00 0.00 0.00 0.00 0.00 0.00 0.00 0.00 0.00 0.00 0.00 0.00 0.00 0.00 0.00 0.00 0.00 0.00 0.00 0.00
0.11 0.07 0.12 0.10 0.21 0.58 0.40 0.15 0.10 0.18 0.06 0.02 0.00 0.00 0.00 0.00 0.00 0.00 0.00 0.00 0.00 0.00 0.00 0.00 0.00 0.00 0.00 0.02 0.03 0.01 0.01 0.00 0.00 0.00 0.00 0.00 0.00 0.00 0.00 0.00 0.00 0.00 0.00 0.00
0.12 0.06 0.08 0.07 0.12 0.39 0.27 0.11 0.19 0.35 0.18 0.01 0.01 0.00 0.00 0.00 0.00 0.00 0.00 0.00 0.00 0.00 0.01 0.03 0.03 0.02 0.02 0.01 0.01 0.02 0.03 0.01 0.00 0.00 0.00 0.00 0.00 0.00 0.00 0.00 0.00 0.00 0.00 0.00
0.11 0.06 0.07 0.04 0.08 0.26 0.25 0.20 0.31 0.47 0.33 0.06 0.01 0.00 0.00 0.00 0.01 0.01 0.03 0.02 0.02 0.00 0.03 0.02 0.03 0.01 0.00 0.00 0.00 0.00 0.00 0.00 0.00 0.00 0.00 0.00 0.00 0.00 0.00 0.00 0.00 0.00 0.00 0.00
0.09 0.06 0.07 0.03 0.05 0.14 0.16 0.32 0.43 0.60 0.47 0.12 0.04 0.02 0.00 0.01 0.01 0.02 0.02 0.04 0.04 0.02 0.05 0.03 0.01 0.01 0.00 0.00 0.00 0.00 0.00 0.00 0.00 0.00 0.00 0.00 0.00 0.00 0.00 0.00 0.00 0.00 0.00 0.00
0.07 0.05 0.05 0.03 0.04 0.09 0.10 0.31 0.46 0.64 0.44 0.16 0.07 0.06 0.01 0.00 0.00 0.01 0.01 0.06 0.07 0.08 0.07 0.02 0.00 0.00 0.00 0.00 0.00 0.00 0.00 0.00 0.00 0.00 0.00 0.00 0.00 0.00 0.00 0.00 0.00 0.00 0.00 0.00
0.06 0.04 0.04 0.04 0.05 0.08 0.10 0.21 0.39 0.49 0.68 0.31 0.11 0.04 0.00 0.00 0.00 0.00 0.00 0.01 0.01 0.01 0.04 0.02 0.02 0.00 0.00 0.00 0.00 0.00 0.00 0.00 0.00 0.00 0.00 0.00 0.00 0.00 0.00 0.00 0.00 0.00 0.00 0.00
0.06 0.04 0.04 0.05 0.06 0.08 0.12 0.20 0.35 0.57 1.03 0.44 0.14 0.07 0.01 0.00 0.00 0.02 0.01 0.00 0.01 0.02 0.05 0.05 0.04 0.01 0.00 0.00 0.00 0.00 0.00 0.00 0.00 0.00 0.00 0.00 0.00 0.00 0.00 0.00 0.00 0.00 0.00 0.00
0.05 0.04 0.06 0.05 0.06 0.08 0.14 0.35 0.88 1.15 1.06 0.79 0.27 0.13 0.07 0.03 0.00 0.01 0.02 0.02 0.00 0.03 0.05 0.08 0.04 0.01 0.01 0.00 0.00 0.00 0.00 0.00 0.00 0.00 0.00 0.00 0.00 0.00 0.00 0.00 0.00 0.00 0.00 0.00
0.05 0.06 0.07 0.06 0.07 0.10 0.30 0.48 1.01 1.31 1.32 1.00 0.59 0.17 0.13 0.10 0.03 0.01 0.01 0.01 0.01 0.03 0.10 0.08 0.03 0.01 0.01 0.01 0.00 0.00 0.00 0.00 0.00 0.00 0.00 0.00 0.00 0.00 0.00 0.00 0.00 0.00 0.00 0.00
0.06 0.08 0.09 0.08 0.11 0.20 0.68 0.85 0.76 0.72 1.01 1.03 0.91 0.23 0.11 0.15 0.14 0.15 0.05 0.04 0.03 0.06 0.07 0.06 0.02 0.01 0.01 0.00 0.00 0.00 0.00 0.00 0.00 0.00 0.00 0.00 0.00 0.00 0.00 0.00 0.00 0.00 0.00 0.00
0.11 0.11 0.11 0.12 0.23 0.34 0.86 0.82 0.71 0.38 0.68 0.85 0.82 0.63 0.17 0.18 0.23 0.50 0.29 0.15 0.11 0.14 0.09 0.03 0.01 0.00 0.00 0.00 0.00 0.00 0.00 0.00 0.00 0.00 0.00 0.00 0.00 0.00 0.00 0.00 0.00 0.00 0.00 0.00
0.14 0.12 0.16 0.17 0.32 0.53 0.88 0.63 0.59 0.43 0.38 0.51 0.62 0.73 0.40 0.16 0.22 0.31 0.50 0.23 0.21 0.19 0.12 0.04 0.01 0.01 0.00 0.00 0.00 0.00 0.00 0.00 0.00 0.00 0.00 0.00 0.00 0.00 0.00 0.00 0.00 0.00 0.00 0.00
0.13 0.22 0.29 0.44 0.71 0.88 0.84 0.63 0.65 0.54 0.38 0.44 0.26 0.45 0.42 0.27 0.13 0.10 0.30 0.33 0.27 0.17 0.14 0.06 0.04 0.01 0.01 0.00 0.00 0.00 0.00 0.00 0.00 0.00 0.00 0.00 0.00 0.00 0.00 0.00 0.00 0.00 0.00 0.00
0.20 0.37 0.61 0.74 0.78 0.99 0.80 1.10 0.84 0.48 0.28 0.22 0.17 0.24 0.38 0.38 0.32 0.15 0.07 0.30 0.33 0.31 0.24 0.16 0.11 0.03 0.01 0.00 0.00 0.00 0.00 0.00 0.00 0.00 0.00 0.00 0.00 0.00 0.00 0.00 0.00 0.00 0.00 0.00
0.45 0.66 0.86 0.74 0.84 0.82 0.82 0.82 0.57 0.41 0.22 0.08 0.03 0.11 0.33 0.34 0.32 0.32 0.11 0.13 0.29 0.27 0.22 0.23 0.19 0.08 0.03 0.02 0.02 0.01 0.00 0.01 0.01 0.00 0.00 0.00 0.00 0.00 0.00 0.00 0.00 0.00 0.00 0.00
0.46 0.61 0.57 0.73 0.68 0.52 0.41 0.33 0.27 0.17 0.06 0.03 0.02 0.04 0.18 0.42 0.41 0.39 0.21 0.09 0.10 0.15 0.14 0.16 0.11 0.07 0.03 0.02 0.02 0.03 0.02 0.01 0.01 0.00 0.00 0.00 0.00 0.00 0.00 0.00 0.00 0.00 0.00 0.00
0.49 0.34 0.46 0.55 0.39 0.34 0.27 0.17 0.09 0.05 0.01 0.01 0.04 0.08 0.07 0.26 0.43 0.26 0.14 0.11 0.05 0.03 0.01 0.02 0.04 0.02 0.01 0.02 0.01 0.01 0.00 0.00 0.00 0.00 0.00 0.01 0.02 0.03 0.04 0.05 0.02 0.00 0.00 0.00
0.38 0.30 0.41 0.29 0.26 0.18 0.11 0.06 0.03 0.02 0.03 0.03 0.02 0.07 0.09 0.09 0.20 0.14 0.05 0.03 0.02 0.01 0.00 0.00 0.00 0.00 0.00 0.00 0.00 0.00 0.02 0.04 0.06 0.07 0.09 0.09 0.08 0.06 0.03 0.01 0.00 0.00 0.00 0.00
0.12 0.23 0.21 0.18 0.17 0.11 0.11 0.06 0.03 0.05 0.05 0.03 0.01 0.01 0.08 0.12 0.11 0.06 0.05 0.02 0.02 0.03 0.02 0.01 0.01 0.01 0.01 0.01 0.01 0.01 0.02 0.02 0.02 0.03 0.03 0.03 0.03 0.01 0.01 0.00 0.00 0.00 0.00 0.00
0.10 0.16 0.16 0.14 0.13 0.12 0.08 0.06 0.06 0.04 0.04 0.01 0.00 0.01 0.02 0.10 0.07 0.06 0.05 0.03 0.05 0.07 0.06 0.04 0.02 0.02 0.03 0.03 0.04 0.06 0.06 0.05 0.06 0.07 0.06 0.03 0.01 0.00 0.00 0.00 0.00 0.00 0.00 0.00
0.14 0.30 0.31 0.26 0.22 0.25 0.23 0.21 0.18 0.11 0.07 0.06 0.04 0.09 0.13 0.12 0.08 0.09 0.11 0.14 0.17 0.17 0.16 0.14 0.10 0.12 0.13 0.15 0.16 0.12 0.08 0.06 0.04 0.05 0.05 0.04 0.03 0.01 0.00 0.00 0.00 0.00 0.00 0.00

GFSNW_prec_precacc12_042.txt.gz
Total_Precipitation_Accumulation
0.13 0.10 0.11 0.12 0.10 0.12 0.25 0.20 0.15 0.03 0.03 0.17 0.10 0.02 0.00 0.00 0.00 0.00 0.00 0.00 0.00 0.00 0.00 0.00 0.00 0.00 0.00 0.00 0.00 0.00 0.00 0.00 0.00 0.00 0.00 0.00 0.00 0.00 0.00 0.00 0.00 0.00 0.00 0.00
0.20 0.16 0.13 0.16 0.15 0.15 0.24 0.26 0.15 0.20 0.07 0.06 0.01 0.00 0.00 0.00 0.00 0.00 0.00 0.00 0.00 0.00 0.00 0.00 0.00 0.00 0.00 0.00 0.00 0.00 0.00 0.00 0.00 0.00 0.00 0.00 0.00 0.00 0.00 0.00 0.00 0.00 0.00 0.00
0.31 0.30 0.19 0.17 0.21 0.17 0.21 0.25 0.23 0.45 0.26 0.00 0.00 0.00 0.00 0.00 0.00 0.00 0.00 0.00 0.00 0.00 0.00 0.00 0.00 0.00 0.00 0.00 0.00 0.00 0.00 0.00 0.00 0.00 0.00 0.00 0.00 0.00 0.00 0.00 0.00 0.00 0.00 0.00
0.26 0.38 0.37 0.22 0.21 0.19 0.30 0.40 0.16 0.17 0.10 0.01 0.00 0.00 0.00 0.00 0.00 0.00 0.00 0.00 0.00 0.00 0.00 0.00 0.00 0.00 0.00 0.00 0.00 0.00 0.00 0.00 0.00 0.00 0.00 0.00 0.00 0.00 0.00 0.00 0.00 0.00 0.00 0.00
0.28 0.33 0.45 0.36 0.24 0.26 0.47 0.53 0.07 0.05 0.01 0.00 0.01 0.01 0.00 0.00 0.00 0.00 0.00 0.00 0.00 0.00 0.00 0.00 0.00 0.00 0.00 0.00 0.00 0.00 0.00 0.00 0.00 0.00 0.00 0.00 0.00 0.00 0.00 0.00 0.00 0.00 0.00 0.00
0.29 0.34 0.42 0.46 0.31 0.44 0.77 0.31 0.03 0.06 0.02 0.01 0.01 0.00 0.00 0.00 0.00 0.00 0.00 0.00 0.00 0.00 0.00 0.01 0.00 0.00 0.00 0.00 0.00 0.00 0.00 0.00 0.00 0.00 0.00 0.00 0.00 0.00 0.00 0.00 0.00 0.00 0.00 0.00
0.32 0.32 0.40 0.47 0.37 0.51 0.34 0.10 0.07 0.11 0.05 0.04 0.00 0.00 0.00 0.00 0.00 0.00 0.00 0.00 0.00 0.00 0.00 0.00 0.00 0.00 0.00 0.00 0.00 0.00 0.00 0.00 0.00 0.00 0.00 0.00 0.00 0.00 0.00 0.00 0.00 0.00 0.00 0.00
0.34 0.34 0.37 0.43 0.33 0.32 0.15 0.04 0.10 0.23 0.16 0.04 0.01 0.00 0.00 0.01 0.01 0.00 0.00 0.00 0.00 0.00 0.00 0.01 0.01 0.02 0.01 0.00 0.00 0.00 0.00 0.00 0.00 0.00 0.00 0.00 0.00 0.00 0.00 0.00 0.00 0.00 0.00 0.00
0.33 0.37 0.31 0.35 0.26 0.20 0.12 0.10 0.09 0.32 0.23 0.07 0.03 0.03 0.00 0.00 0.01 0.01 0.00 0.00 0.00 0.00 0.02 0.02 0.02 0.02 0.01 0.00 0.00 0.00 0.00 0.00 0.00 0.00 0.00 0.00 0.00 0.00 0.00 0.00 0.00 0.00 0.00 0.00
0.29 0.31 0.24 0.27 0.18 0.14 0.10 0.16 0.14 0.30 0.32 0.12 0.12 0.08 0.02 0.00 0.01 0.01 0.00 0.00 0.00 0.01 0.03 0.01 0.01 0.01 0.00 0.00 0.01 0.00 0.00 0.00 0.00 0.00 0.00 0.00 0.00 0.00 0.00 0.00 0.00 0.00 0.00 0.00
0.21 0.21 0.20 0.20 0.13 0.14 0.08 0.16 0.22 0.27 0.30 0.09 0.10 0.14 0.11 0.02 0.01 0.01 0.00 0.01 0.02 0.03 0.03 0.01 0.00 0.00 0.00 0.01 0.00 0.00 0.00 0.00 0.00 0.00 0.00 0.00 0.00 0.00 0.00 0.00 0.00 0.00 0.00 0.00
0.17 0.19 0.20 0.16 0.12 0.17 0.09 0.12 0.27 0.20 0.34 0.24 0.08 0.09 0.05 0.03 0.00 0.00 0.00 0.00 0.00 0.01 0.02 0.01 0.03 0.00 0.00 0.00 0.00 0.00 0.00 0.00 0.00 0.00 0.00 0.00 0.00 0.00 0.00 0.00 0.00 0.00 0.00 0.00
0.18 0.20 0.21 0.16 0.14 0.19 0.10 0.10 0.23 0.20 0.28 0.31 0.12 0.09 0.07 0.08 0.01 0.00 0.00 0.00 0.01 0.01 0.04 0.05 0.04 0.02 0.00 0.00 0.00 0.00 0.00 0.01 0.00 0.00 0.00 0.00 0.00 0.00 0.00 0.00 0.00 0.00 0.00 0.00
0.21 0.22 0.23 0.18 0.22 0.17 0.10 0.12 0.22 0.19 0.28 0.35 0.16 0.19 0.15 0.09 0.05 0.01 0.00 0.01 0.00 0.03 0.05 0.08 0.04 0.02 0.02 0.01 0.01 0.00 0.00 0.00 0.00 0.00 0.00 0.00 0.00 0.00 0.00 0.00 0.00 0.00 0.00 0.00
0.22 0.23 0.22 0.23 0.21 0.15 0.11 0.15 0.28 0.23 0.35 0.37 0.22 0.15 0.17 0.11 0.05 0.02 0.01 0.01 0.01 0.03 0.10 0.08 0.03 0.02 0.03 0.02 0.02 0.00 0.00 0.00 0.00 0.00 0.00 0.00 0.00 0.00 0.00 0.00 0.00 0.00 0.00 0.00
0.16 0.20 0.21 0.20 0.16 0.15 0.23 0.39 0.31 0.25 0.26 0.38 0.27 0.19 0.12 0.14 0.15 0.13 0.06 0.02 0.01 0.07 0.08 0.06 0.03 0.01 0.02 0.01 0.00 0.00 0.01 0.02 0.02 0.01 0.01 0.00 0.00 0.00 0.00 0.00 0.00 0.00 0.00 0.00
0.15 0.18 0.17 0.13 0.15 0.12 0.18 0.17 0.11 0.07 0.18 0.32 0.31 0.33 0.14 0.17 0.34 0.48 0.30 0.14 0.10 0.09 0.08 0.06 0.03 0.01 0.01 0.00 0.00 0.00 0.00 0.00 0.01 0.00 0.00 0.00 0.00 0.00 0.00 0.00 0.00 0.00 0.00 0.00
0.15 0.14 0.14 0.07 0.15 0.10 0.09 0.20 0.19 0.06 0.16 0.33 0.44 0.62 0.52 0.20 0.31 0.45 0.57 0.27 0.23 0.18 0.10 0.03 0.02 0.03 0.01 0.00 0.00 0.00 0.00 0.00 0.00 0.00 0.00 0.00 0.00 0.00 0.00 0.00 0.00 0.00 0.00 0.00
0.13 0.22 0.18 0.22 0.30 0.16 0.13 0.37 0.36 0.22 0.20 0.29 0.23 0.66 0.70 0.39 0.24 0.35 0.46 0.45 0.35 0.20 0.13 0.07 0.06 0.02 0.02 0.00 0.00 0.00 0.00 0.00 0.00 0.00 0.00 0.00 0.00 0.00 0.00 0.00 0.00 0.00 0.00 0.00
0.21 0.24 0.22 0.28 0.19 0.25 0.34 0.80 0.76 0.47 0.26 0.22 0.18 0.31 0.73 0.50 0.37 0.31 0.47 0.50 0.40 0.32 0.24 0.16 0.11 0.03 0.01 0.00 0.00 0.00 0.00 0.00 0.00 0.00 0.00 0.00 0.00 0.00 0.00 0.00 0.00 0.00 0.00 0.00
0.20 0.30 0.36 0.24 0.30 0.51 0.65 0.98 0.84 0.56 0.24 0.06 0.03 0.13 0.65 0.61 0.35 0.33 0.30 0.42 0.51 0.31 0.22 0.23 0.19 0.08 0.02 0.01 0.01 0.01 0.00 0.01 0.01 0.01 0.01 0.00 0.00 0.00 0.00 0.00 0.00 0.00 0.00 0.00
0.36 0.48 0.40 0.44 0.56 0.53 0.65 0.65 0.51 0.27 0.06 0.03 0.03 0.03 0.19 0.48 0.42 0.38 0.31 0.17 0.23 0.19 0.14 0.16 0.12 0.09 0.09 0.05 0.03 0.04 0.05 0.05 0.04 0.03 0.02 0.02 0.02 0.02 0.02 0.02 0.03 0.04 0.06 0.10
0.73 0.49 0.46 0.51 0.44 0.37 0.41 0.48 0.33 0.21 0.03 0.03 0.07 0.06 0.06 0.28 0.46 0.44 0.38 0.28 0.20 0.13 0.15 0.12 0.11 0.07 0.09 0.19 0.25 0.25 0.19 0.15 0.12 0.09 0.06 0.05 0.06 0.08 0.09 0.13 0.19 0.23 0.28 0.29
0.67 0.45 0.42 0.34 0.39 0.34 0.31 0.36 0.31 0.16 0.07 0.07 0.11 0.15 0.11 0.10 0.34 0.51 0.43 0.36 0.25 0.25 0.18 0.15 0.15 0.15 0.16 0.20 0.19 0.18 0.23 0.25 0.27 0.30 0.31 0.31 0.31 0.34 0.34 0.31 0.29 0.24 0.20 0.16
0.41 0.30 0.27 0.33 0.38 0.36 0.44 0.43 0.28 0.21 0.19 0.15 0.21 0.26 0.21 0.18 0.26 0.31 0.30 0.29 0.22 0.19 0.18 0.18 0.23 0.25 0.25 0.25 0.24 0.20 0.17 0.16 0.18 0.23 0.26 0.29 0.28 0.22 0.21 0.19 0.15 0.11 0.10 0.09
0.14 0.23 0.30 0.30 0.37 0.39 0.41 0.31 0.22 0.22 0.22 0.18 0.21 0.17 0.10 0.18 0.16 0.12 0.17 0.16 0.20 0.25 0.28 0.30 0.30 0.29 0.26 0.25 0.25 0.26 0.25 0.23 0.24 0.26 0.24 0.20 0.16 0.12 0.10 0.09 0.08 0.08 0.05 0.03
0.14 0.28 0.34 0.31 0.27 0.26 0.25 0.25 0.19 0.11 0.06 0.06 0.03 0.06 0.09 0.09 0.06 0.08 0.11 0.16 0.26 0.34 0.39 0.39 0.34 0.32 0.34 0.36 0.33 0.27 0.16 0.14 0.16 0.18 0.19 0.16 0.15 0.09 0.04 0.03 0.03 0.02 0.01 0.01

GFSNW_prec_precacc12_045.txt.gz
Total_Precipitation_Accumulation
0.09 0.08 0.11 0.14 0.12 0.14 0.27 0.21 0.15 0.05 0.06 0.20 0.13 0.04 0.00 0.00 0.00 0.00 0.00 0.00 0.00 0.00 0.00 0.00 0.00 0.00 0.00 0.00 0.00 0.00 0.00 0.00 0.00 0.00 0.00 0.00 0.00 0.00 0.00 0.00 0.00 0.00 0.00 0.00
0.18 0.15 0.14 0.18 0.18 0.19 0.29 0.29 0.15 0.25 0.11 0.11 0.03 0.00 0.00 0.00 0.00 0.00 0.00 0.00 0.00 0.00 0.00 0.00 0.00 0.00 0.00 0.00 0.00 0.00 0.00 0.00 0.00 0.00 0.00 0.00 0.00 0.00 0.00 0.00 0.00 0.00 0.01 0.00
0.30 0.33 0.23 0.21 0.29 0.27 0.21 0.27 0.27 0.54 0.26 0.01 0.00 0.00 0.00 0.00 0.00 0.00 0.00 0.00 0.00 0.00 0.00 0.00 0.00 0.00 0.00 0.00 0.00 0.00 0.00 0.00 0.00 0.00 0.00 0.00 0.00 0.00 0.00 0.00 0.00 0.00 0.00 0.00
0.24 0.39 0.45 0.32 0.34 0.33 0.36 0.48 0.21 0.25 0.12 0.02 0.00 0.00 0.00 0.00 0.00 0.00 0.00 0.00 0.00 0.00 0.00 0.00 0.00 0.00 0.00 0.00 0.00 0.00 0.00 0.00 0.00 0.00 0.00 0.00 0.00 0.00 0.00 0.00 0.00 0.00 0.00 0.00
0.27 0.33 0.48 0.53 0.45 0.45 0.67 0.67 0.07 0.04 0.01 0.00 0.01 0.01 0.00 0.00 0.00 0.00 0.00 0.00 0.00 0.00 0.00 0.00 0.00 0.00 0.00 0.00 0.00 0.00 0.00 0.00 0.00 0.00 0.00 0.00 0.00 0.00 0.00 0.00 0.00 0.00 0.00 0.00
0.29 0.34 0.43 0.59 0.62 0.68 1.21 0.54 0.03 0.04 0.02 0.01 0.01 0.00 0.00 0.00 0.00 0.00 0.00 0.00 0.00 0.00 0.00 0.01 0.01 0.00 0.00 0.00 0.00 0.00 0.00 0.00 0.00 0.00 0.00 0.00 0.00 0.00 0.00 0.00 0.00 0.00 0.00 0.00
0.33 0.32 0.40 0.50 0.79 0.71 0.68 0.24 0.04 0.08 0.05 0.05 0.00 0.00 0.00 0.00 0.00 0.00 0.00 0.00 0.00 0.00 0.00 0.01 0.00 0.00 0.00 0.00 0.00 0.00 0.00 0.00 0.00 0.00 0.00 0.00 0.00 0.00 0.00 0.00 0.00 0.00 0.00 0.00
0.37 0.36 0.38 0.44 0.60 0.65 0.20 0.03 0.04 0.13 0.12 0.04 0.01 0.00 0.00 0.01 0.01 0.00 0.00 0.00 0.00 0.00 0.00 0.01 0.01 0.01 0.00 0.00 0.00 0.00 0.00 0.00 0.00 0.00 0.00 0.00 0.00 0.00 0.00 0.00 0.00 0.00 0.00 0.00
0.39 0.40 0.33 0.36 0.43 0.62 0.31 0.06 0.02 0.21 0.18 0.06 0.02 0.03 0.00 0.00 0.02 0.02 0.00 0.00 0.00 0.00 0.01 0.01 0.02 0.01 0.01 0.00 0.03 0.00 0.00 0.00 0.01 0.00 0.00 0.00 0.00 0.00 0.00 0.00 0.00 0.00 0.00 0.00
0.35 0.35 0.27 0.29 0.32 0.45 0.26 0.14 0.04 0.18 0.26 0.07 0.10 0.09 0.03 0.00 0.01 0.03 0.01 0.00 0.02 0.01 0.02 0.00 0.00 0.01 0.00 0.00 0.03 0.01 0.00 0.00 0.00 0.01 0.00 0.00 0.00 0.00 0.00 0.00 0.00 0.00 0.00 0.00
0.27 0.27 0.23 0.22 0.25 0.38 0.20 0.15 0.12 0.19 0.28 0.09 0.11 0.16 0.16 0.05 0.03 0.05 0.01 0.04 0.03 0.02 0.01 0.00 0.00 0.00 0.00 0.01 0.00 0.01 0.00 0.01 0.01 0.01 0.01 0.00 0.00 0.00 0.00 0.00 0.00 0.00 0.00 0.00
0.22 0.23 0.22 0.20 0.23 0.39 0.17 0.12 0.21 0.20 0.36 0.27 0.08 0.10 0.10 0.07 0.01 0.00 0.01 0.02 0.01 0.00 0.00 0.01 0.03 0.01 0.01 0.00 0.00 0.00 0.01 0.01 0.02 0.00 0.00 0.00 0.00 0.00 0.00 0.00 0.00 0.00 0.00 0.00
0.20 0.22 0.21 0.21 0.28 0.36 0.12 0.12 0.23 0.22 0.27 0.17 0.09 0.09 0.08 0.13 0.03 0.01 0.07 0.02 0.00 0.00 0.00 0.02 0.03 0.02 0.01 0.00 0.00 0.00 0.00 0.01 0.01 0.00 0.00 0.00 0.00 0.00 0.00 0.00 0.00 0.00 0.00 0.00
0.21 0.22 0.24 0.25 0.42 0.29 0.09 0.12 0.21 0.16 0.19 0.12 0.05 0.12 0.13 0.12 0.12 0.03 0.03 0.02 0.00 0.02 0.01 0.04 0.04 0.02 0.02 0.01 0.01 0.00 0.00 0.00 0.00 0.00 0.00 0.00 0.00 0.00 0.00 0.00 0.00 0.00 0.00 0.00
0.22 0.23 0.27 0.46 0.40 0.19 0.10 0.13 0.25 0.16 0.19 0.17 0.03 0.08 0.11 0.10 0.12 0.06 0.02 0.03 0.03 0.03 0.07 0.06 0.02 0.01 0.03 0.03 0.02 0.00 0.00 0.00 0.00 0.00 0.00 0.00 0.00 0.00 0.00 0.00 0.00 0.00 0.00 0.00
0.18 0.28 0.40 0.33 0.18 0.14 0.22 0.38 0.29 0.21 0.15 0.26 0.16 0.14 0.07 0.10 0.13 0.14 0.05 0.04 0.04 0.06 0.07 0.07 0.03 0.01 0.02 0.01 0.00 0.00 0.01 0.02 0.02 0.01 0.01 0.00 0.00 0.00 0.00 0.00 0.00 0.00 0.00 0.00
0.23 0.26 0.22 0.14 0.15 0.12 0.16 0.17 0.10 0.07 0.13 0.22 0.16 0.16 0.11 0.11 0.25 0.28 0.16 0.13 0.08 0.08 0.10 0.08 0.04 0.02 0.01 0.00 0.00 0.00 0.00 0.00 0.01 0.00 0.00 0.00 0.00 0.00 0.00 0.00 0.00 0.00 0.00 0.00
0.18 0.15 0.16 0.10 0.15 0.07 0.04 0.09 0.07 0.02 0.12 0.20 0.26 0.24 0.31 0.20 0.32 0.43 0.25 0.21 0.19 0.15 0.08 0.03 0.04 0.06 0.03 0.01 0.00 0.00 0.00 0.00 0.00 0.00 0.00 0.00 0.00 0.00 0.00 0.00 0.00 0.00 0.00 0.00
0.18 0.28 0.21 0.19 0.19 0.10 0.10 0.22 0.10 0.06 0.13 0.16 0.12 0.30 0.44 0.48 0.38 0.56 0.34 0.30 0.25 0.19 0.12 0.04 0.07 0.05 0.04 0.00 0.00 0.00 0.00 0.00 0.00 0.00 0.00 0.00 0.00 0.00 0.00 0.00 0.00 0.00 0.00 0.00
0.18 0.17 0.12 0.18 0.08 0.15 0.26 0.61 0.45 0.25 0.18 0.19 0.13 0.14 0.48 0.58 0.52 0.53 0.57 0.37 0.23 0.22 0.26 0.18 0.11 0.03 0.02 0.00 0.00 0.00 0.00 0.00 0.00 0.00 0.00 0.00 0.00 0.00 0.00 0.00 0.00 0.00 0.00 0.00
0.10 0.16 0.21 0.12 0.16 0.25 0.37 0.58 0.54 0.36 0.15 0.04 0.01 0.07 0.43 0.64 0.48 0.47 0.36 0.59 0.53 0.34 0.24 0.26 0.21 0.09 0.03 0.01 0.01 0.00 0.00 0.00 0.00 0.00 0.00 0.00 0.00 0.00 0.00 0.00 0.00 0.00 0.00 0.00
0.20 0.32 0.26 0.21 0.18 0.15 0.33 0.44 0.44 0.26 0.07 0.04 0.03 0.03 0.13 0.59 0.65 0.47 0.32 0.28 0.28 0.33 0.20 0.19 0.18 0.13 0.10 0.05 0.03 0.03 0.04 0.04 0.03 0.02 0.02 0.02 0.02 0.02 0.02 0.02 0.03 0.04 0.07 0.11
0.61 0.33 0.17 0.12 0.15 0.18 0.30 0.48 0.37 0.25 0.04 0.04 0.10 0.11 0.18 0.37 0.60 0.48 0.38 0.29 0.23 0.29 0.32 0.22 0.17 0.11 0.10 0.19 0.24 0.24 0.18 0.14 0.11 0.09 0.06 0.05 0.06 0.08 0.10 0.14 0.21 0.27 0.34 0.40
0.36 0.23 0.25 0.31 0.38 0.34 0.32 0.41 0.37 0.19 0.09 0.07 0.13 0.21 0.18 0.13 0.35 0.52 0.43 0.39 0.30 0.35 0.25 0.19 0.18 0.20 0.20 0.23 0.22 0.21 0.26 0.28 0.31 0.36 0.37 0.37 0.38 0.47 0.54 0.56 0.56 0.50 0.48 0.46
0.38 0.28 0.28 0.36 0.44 0.39 0.47 0.45 0.30 0.22 0.20 0.17 0.23 0.31 0.17 0.10 0.20 0.30 0.30 0.31 0.24 0.21 0.21 0.21 0.27 0.32 0.31 0.32 0.32 0.31 0.32 0.32 0.33 0.36 0.38 0.42 0.43 0.37 0.37 0.36 0.32 0.25 0.24 0.22
0.16 0.24 0.36 0.37 0.45 0.46 0.47 0.37 0.27 0.29 0.32 0.31 0.32 0.26 0.18 0.20 0.17 0.13 0.20 0.18 0.21 0.27 0.31 0.36 0.39 0.37 0.36 0.34 0.34 0.35 0.36 0.33 0.34 0.36 0.33 0.28 0.23 0.18 0.17 0.16 0.15 0.15 0.11 0.09
0.17 0.32 0.44 0.43 0.37 0.38 0.40 0.37 0.30 0.26 0.22 0.20 0.18 0.15 0.13 0.12 0.09 0.12 0.13 0.19 0.27 0.35 0.42 0.46 0.45 0.44 0.44 0.43 0.37 0.33 0.25 0.24 0.27 0.27 0.26 0.24 0.22 0.14 0.07 0.07 0.09 0.06 0.05 0.04

GFSNW_prec_precacc12_048.txt.gz
Total_Precipitation_Accumulation
0.10 0.08 0.07 0.07 0.08 0.16 0.29 0.27 0.20 0.07 0.08 0.23 0.14 0.04 0.00 0.00 0.00 0.00 0.00 0.00 0.00 0.00 0.00 0.00 0.00 0.00 0.00 0.00 0.00 0.00 0.00 0.00 0.00 0.00 0.00 0.00 0.00 0.00 0.00 0.00 0.00 0.00 0.00 0.00
0.20 0.16 0.13 0.12 0.13 0.21 0.34 0.37 0.19 0.28 0.13 0.13 0.05 0.00 0.00 0.00 0.00 0.00 0.00 0.00 0.00 0.00 0.00 0.00 0.00 0.00 0.00 0.00 0.00 0.00 0.00 0.00 0.00 0.00 0.00 0.00 0.00 0.00 0.00 0.00 0.00 0.00 0.03 0.00
0.30 0.30 0.23 0.22 0.25 0.30 0.27 0.36 0.37 0.57 0.25 0.02 0.00 0.00 0.00 0.00 0.00 0.00 0.00 0.00 0.00 0.00 0.00 0.00 0.00 0.00 0.00 0.00 0.00 0.00 0.00 0.00 0.00 0.00 0.00 0.00 0.00 0.00 0.00 0.00 0.00 0.00 0.00 0.00
0.23 0.36 0.40 0.35 0.41 0.43 0.49 0.65 0.29 0.29 0.13 0.02 0.00 0.00 0.00 0.00 0.00 0.00 0.00 0.00 0.00 0.00 0.00 0.00 0.00 0.00 0.00 0.00 0.00 0.00 0.00 0.00 0.00 0.00 0.00 0.00 0.00 0.00 0.00 0.00 0.00 0.00 0.00 0.00
0.24 0.31 0.43 0.50 0.57 0.70 0.91 0.92 0.10 0.03 0.01 0.00 0.01 0.01 0.00 0.00 0.00 0.00 0.00 0.00 0.00 0.00 0.00 0.00 0.00 0.00 0.00 0.00 0.00 0.00 0.00 0.00 0.00 0.00 0.00 0.00 0.00 0.00 0.00 0.00 0.00 0.00 0.00 0.00
0.23 0.31 0.38 0.55 0.70 1.13 1.78 0.94 0.05 0.04 0.02 0.02 0.02 0.01 0.00 0.00 0.00 0.00 0.00 0.00 0.00 0.00 0.01 0.02 0.01 0.01 0.00 0.00 0.00 0.00 0.00 0.00 0.00 0.00 0.00 0.00 0.00 0.00 0.00 0.00 0.00 0.00 0.00 0.00
0.25 0.29 0.35 0.45 0.79 1.09 1.38 0.64 0.05 0.09 0.08 0.08 0.01 0.00 0.00 0.00 0.00 0.00 0.00 0.00 0.00 0.00 0.01 0.07 0.08 0.02 0.00 0.00 0.00 0.00 0.00 0.00 0.00 0.00 0.00 0.00 0.00 0.00 0.00 0.00 0.00 0.00 0.00 0.00
0.29 0.33 0.35 0.40 0.61 0.82 0.86 0.33 0.03 0.08 0.10 0.05 0.01 0.00 0.00 0.01 0.01 0.00 0.00 0.00 0.00 0.00 0.02 0.07 0.21 0.11 0.05 0.00 0.00 0.00 0.00 0.01 0.02 0.00 0.00 0.00 0.00 0.00 0.00 0.00 0.00 0.00 0.00 0.00
0.33 0.39 0.32 0.36 0.44 0.68 0.76 0.37 0.06 0.15 0.14 0.06 0.02 0.03 0.01 0.01 0.02 0.03 0.00 0.00 0.00 0.00 0.02 0.06 0.09 0.08 0.02 0.01 0.03 0.00 0.00 0.00 0.05 0.01 0.00 0.00 0.00 0.00 0.00 0.00 0.00 0.00 0.00 0.00
0.31 0.36 0.28 0.30 0.34 0.47 0.63 0.44 0.08 0.15 0.18 0.06 0.11 0.11 0.04 0.01 0.01 0.04 0.01 0.00 0.02 0.03 0.05 0.02 0.04 0.03 0.00 0.00 0.04 0.05 0.01 0.01 0.02 0.04 0.02 0.00 0.00 0.00 0.00 0.00 0.00 0.00 0.00 0.00
0.27 0.28 0.26 0.24 0.27 0.40 0.33 0.50 0.12 0.13 0.22 0.10 0.13 0.14 0.17 0.06 0.03 0.06 0.02 0.07 0.06 0.20 0.13 0.02 0.00 0.00 0.00 0.01 0.00 0.02 0.06 0.05 0.02 0.03 0.04 0.00 0.00 0.00 0.00 0.00 0.00 0.00 0.00 0.00
0.24 0.25 0.26 0.22 0.25 0.40 0.24 0.28 0.17 0.13 0.26 0.29 0.11 0.15 0.16 0.08 0.01 0.00 0.02 0.03 0.02 0.05 0.07 0.01 0.01 0.01 0.01 0.00 0.00 0.00 0.01 0.05 0.06 0.01 0.00 0.00 0.00 0.00 0.00 0.00 0.00 0.00 0.00 0.00
0.23 0.23 0.25 0.24 0.30 0.40 0.19 0.14 0.17 0.29 0.33 0.19 0.13 0.08 0.09 0.14 0.03 0.01 0.10 0.03 0.00 0.00 0.01 0.00 0.01 0.01 0.01 0.01 0.00 0.00 0.00 0.01 0.01 0.01 0.01 0.00 0.00 0.00 0.00 0.00 0.00 0.00 0.00 0.00
0.24 0.24 0.26 0.26 0.43 0.31 0.13 0.09 0.13 0.20 0.19 0.15 0.13 0.16 0.12 0.11 0.12 0.04 0.06 0.05 0.02 0.01 0.01 0.03 0.06 0.02 0.01 0.01 0.01 0.00 0.00 0.00 0.00 0.00 0.00 0.00 0.01 0.01 0.00 0.00 0.00 0.00 0.00 0.00
0.24 0.25 0.31 0.47 0.42 0.23 0.13 0.10 0.19 0.13 0.13 0.17 0.05 0.07 0.09 0.08 0.11 0.06 0.03 0.06 0.10 0.10 0.09 0.06 0.02 0.01 0.01 0.02 0.01 0.00 0.00 0.00 0.01 0.00 0.00 0.00 0.00 0.00 0.00 0.00 0.00 0.00 0.00 0.00
0.20 0.30 0.44 0.36 0.19 0.16 0.22 0.44 0.35 0.21 0.10 0.22 0.11 0.08 0.05 0.06 0.09 0.11 0.05 0.04 0.10 0.11 0.08 0.07 0.02 0.00 0.01 0.01 0.00 0.00 0.01 0.02 0.02 0.01 0.01 0.00 0.00 0.00 0.00 0.00 0.00 0.00 0.00 0.00
0.27 0.31 0.22 0.13 0.08 0.06 0.11 0.17 0.13 0.07 0.11 0.15 0.09 0.09 0.10 0.07 0.17 0.23 0.15 0.15 0.16 0.21 0.19 0.12 0.05 0.01 0.01 0.00 0.00 0.00 0.00 0.00 0.01 0.00 0.00 0.00 0.00 0.00 0.00 0.00 0.00 0.00 0.00 0.00
0.16 0.14 0.14 0.12 0.12 0.09 0.06 0.04 0.03 0.02 0.11 0.12 0.16 0.22 0.30 0.19 0.26 0.37 0.24 0.24 0.27 0.21 0.16 0.09 0.05 0.06 0.06 0.03 0.00 0.00 0.00 0.00 0.00 0.00 0.00 0.00 0.00 0.00 0.00 0.00 0.00 0.00 0.00 0.00
0.16 0.21 0.20 0.22 0.24 0.15 0.09 0.05 0.05 0.07 0.11 0.08 0.07 0.30 0.44 0.34 0.36 0.56 0.37 0.35 0.30 0.16 0.09 0.05 0.08 0.08 0.08 0.03 0.00 0.00 0.00 0.00 0.00 0.00 0.00 0.00 0.00 0.00 0.00 0.00 0.00 0.00 0.00 0.00
0.15 0.17 0.16 0.23 0.11 0.09 0.12 0.17 0.31 0.21 0.15 0.16 0.08 0.13 0.49 0.39 0.39 0.50 0.62 0.44 0.29 0.09 0.08 0.09 0.09 0.07 0.03 0.01 0.01 0.00 0.00 0.00 0.00 0.00 0.00 0.00 0.00 0.00 0.00 0.00 0.00 0.00 0.00 0.00
0.11 0.15 0.11 0.06 0.11 0.24 0.28 0.32 0.39 0.22 0.08 0.04 0.02 0.11 0.41 0.46 0.42 0.49 0.44 0.58 0.55 0.18 0.07 0.11 0.07 0.07 0.02 0.01 0.01 0.00 0.00 0.00 0.00 0.00 0.00 0.00 0.00 0.00 0.00 0.00 0.00 0.00 0.00 0.00
0.13 0.16 0.14 0.19 0.25 0.23 0.28 0.34 0.34 0.16 0.07 0.07 0.04 0.06 0.10 0.35 0.46 0.56 0.37 0.42 0.33 0.32 0.10 0.24 0.24 0.11 0.09 0.04 0.02 0.02 0.03 0.04 0.03 0.02 0.01 0.02 0.02 0.02 0.02 0.02 0.02 0.04 0.07 0.12
0.41 0.30 0.14 0.12 0.10 0.09 0.16 0.38 0.37 0.29 0.05 0.05 0.08 0.14 0.22 0.25 0.46 0.66 0.47 0.46 0.38 0.42 0.44 0.31 0.22 0.10 0.11 0.19 0.25 0.25 0.18 0.15 0.11 0.09 0.06 0.05 0.05 0.05 0.06 0.09 0.19 0.27 0.35 0.42
0.32 0.17 0.05 0.18 0.21 0.22 0.26 0.39 0.43 0.26 0.10 0.07 0.15 0.30 0.37 0.24 0.36 0.56 0.44 0.43 0.38 0.45 0.39 0.25 0.21 0.24 0.24 0.27 0.25 0.24 0.29 0.30 0.30 0.32 0.31 0.31 0.34 0.45 0.56 0.61 0.64 0.58 0.60 0.62
0.32 0.09 0.11 0.25 0.36 0.32 0.41 0.42 0.30 0.22 0.20 0.16 0.26 0.47 0.26 0.12 0.25 0.32 0.31 0.31 0.24 0.21 0.25 0.25 0.33 0.37 0.36 0.37 0.38 0.37 0.37 0.38 0.39 0.41 0.43 0.49 0.51 0.46 0.49 0.51 0.47 0.38 0.36 0.34
0.14 0.20 0.35 0.35 0.44 0.45 0.46 0.37 0.26 0.27 0.33 0.35 0.36 0.33 0.21 0.22 0.16 0.13 0.19 0.17 0.20 0.27 0.31 0.38 0.44 0.41 0.41 0.39 0.38 0.38 0.39 0.39 0.39 0.40 0.38 0.34 0.31 0.27 0.26 0.26 0.25 0.25 0.20 0.18
0.19 0.33 0.44 0.45 0.38 0.39 0.39 0.36 0.29 0.26 0.24 0.24 0.21 0.17 0.15 0.12 0.09 0.12 0.13 0.19 0.26 0.32 0.38 0.44 0.47 0.46 0.47 0.45 0.37 0.34 0.28 0.27 0.31 0.31 0.29 0.28 0.28 0.20 0.13 0.14 0.17 0.12 0.11 0.09